Weather Roundup
Issued by NWS

Home | Current Version | Previous Version | Graphics & Text | Print | Product List | Glossary Off
Versions: 1 2 3 4 5 6 7 8 9 10 11 12 13 14 15 16 17 18 19 20 21 22 23 24 25 26 27 28 29 30 31 32 33 34 35 36 37 38 39 40 41 42 43 44 45 46 47 48 49 50

000
NZUS93 KARX 011859
HRRWXR

CURRENT HOURLY OBSERVATIONS ACROSS
MUCH OF THE UPPER MISSISSIPPI VALLEY
NATIONAL WEATHER SERVICE LA CROSSE WI
100 PM CST SUN MAR 01 2015


...SOUTHEAST MINNESOTA...


CITY           SKY/WX    TMP DP  RH WIND       PRES   REMARKS
ROCHESTER      SUNNY     19   8  62 W17       30.25F WCI   4
ROCHESTER/MAYO FAIR      19   4  51 W17G24    30.25F WCI   4
WINONA         MOSUNNY   28  10  47 W9G17     30.27F WCI  20
AUSTIN         SUNNY     19   7  58 NW17      30.27F WCI   4
ALBERT LEA     SUNNY     21   9  58 NW13      30.27F WCI   9
DODGE CENTER   SUNNY     19   7  58 W15       30.25F WCI   5
PRESTON        MOSUNNY   19   9  64 W15       30.26F WCI   5
OWATONNA       SUNNY     21   9  58 W14       30.26F WCI   8
FARIBAULT      SUNNY     21   9  58 W14       30.27F WCI   8
$$

...ELSEWHERE IN MINNESOTA...


CITY           SKY/WX    TMP DP  RH WIND       PRES   REMARKS
MINNEAPOLIS    MOSUNNY   24   5  44 W14G23    30.25F WCI  12
INTNL FALLS    MOSUNNY   16   4  59 W10       30.09S WCI   4
DULUTH         MOSUNNY   21   5  50 W21       30.08F WCI   5
RED WING       SUNNY     25   7  46 W13       30.25F WCI  13
REDWOOD FALLS  SUNNY     27  12  53 W16G26    30.27F WCI  15
MANKATO        SUNNY     23   9  54 W15       30.28F WCI  10
FAIRMONT       SUNNY     27  10  50 W16       30.28F WCI  14
$$

...SOUTHWEST WISCONSIN...


CITY           SKY/WX    TMP DP  RH WIND       PRES   REMARKS
LA CROSSE      PTSUNNY   26  14  60 W13       30.26F WCI  15
PRAIRIE DU CHI PTSUNNY   26  15  64 W13       30.30F WCI  15
BOSCOBEL       MIX PCPN  27  16  63 SW15      30.28F WCI  15
LONE ROCK      NOT AVBL
PLATTEVILLE    PTSUNNY   25  17  74 SW13      30.28F WCI  13
FORT MC COY    CLOUDY    22  15  75 SW7       30.26F WCI  14
CAMP DOUGLAS   CLOUDY    23  18  80 W12       30.23F WCI  12
VIROQUA        CLOUDY    22  16  77 SW12      30.22F WCI  11
WIS DELLS      NOT AVBL
$$

...ELSEWHERE IN WISCONSIN...


CITY           SKY/WX    TMP DP  RH WIND       PRES   REMARKS
MILWAUKEE      MOSUNNY   25  13  60 SW13      30.28F WCI  14
MADISON        CLOUDY    24  13  62 SW12G17   30.26F WCI  13
GREEN BAY      CLOUDY    26  15  63 SW10      30.20F WCI  16
EAU CLAIRE     PTSUNNY   22  10  60 W15       30.21F WCI   9
BLACK RVR FLS  FLURRIES  22  14  69 W9        30.24F WCI  12
MEDFORD        LGT SNOW  17  11  78 SW12      30.15F WCI   4
WAUSAU         LGT SNOW  17  10  74 SW12      30.16F WCI   4
WIS RAPIDS     CLOUDY    21  11  65 SW12      30.21F WCI   9
MARSHFIELD     CLOUDY    18  12  77 SW13      30.18F HAZE    WCI   5
RICE LAKE      MOSUNNY   23  10  57 W10       30.19F WCI  12
$$

...NORTHEAST IOWA...


CITY           SKY/WX    TMP DP  RH WIND       PRES   REMARKS
DECORAH        MOSUNNY   21  14  73 VRB7G15   30.26F WCI  13
MASON CITY     SUNNY     23  12  62 NW15      30.31F WCI  10
CHARLES CITY   SUNNY     21  12  68 W12       30.30F WCI   9
OELWEIN        CLOUDY    23  18  80 W10       30.31S WCI  12
$$

...ELSEWHERE IN IOWA...


CITY           SKY/WX    TMP DP  RH WIND       PRES   REMARKS
DES MOINES     MOSUNNY   31  18  58 W9        30.35F WCI  23
IOWA CITY      PTSUNNY   25  17  72 W12       30.37F WCI  14
FORT DODGE     CLOUDY    27  14  59 NW9       30.34F WCI  17
$$

...NORTHERN ILLINOIS...


CITY           SKY/WX    TMP DP  RH WIND       PRES   REMARKS
CHICAGO-OHARE  CLOUDY    23  16  74 W7        30.31F WCI  15
CHICAGO-MIDWAY FLURRIES  25  18  74 SW9       30.32F WCI  15
MOLINE         CLOUDY    26  15  63 W5        30.35F WCI  20
ROCKFORD       PTSUNNY   25  14  63 NW8       30.32F WCI  16
PEORIA         CLOUDY    28  19  69 VRB5      30.36F WCI  23
$$

NOTE: "FAIR" INDICATES FEW OR NO CLOUDS BELOW 12,000 FEET WITH NO
SIGNIFICANT WEATHER AND/OR OBSTRUCTIONS TO VISIBILITY. WIND
SPEEDS ARE IN MILES-PER-HOUR.



USA.gov is the U.S. government's official web portal to all federal, state and local government web resources and services.